Location: Doussal
(55.6167°N, 116.8333°W)
Time: 04:30:25
(UTC+00:00)

METEOR M2 - Pass Details

Date: 16 December 2023
Orbit: 818 x 826 km, 98.4° (Epoch: 25 February)

Event Time Altitude Azimuth Distance (km) Brightness Sun altitude
Rises 02:34:28 0° 227° (SW) 3,359 ? -26.3°
Reaches altitude 10° 02:38:37 10° 259° (W) 2,431 ? -26.9°
Maximum altitude 02:40:31 12° 280° (W) 2,309 ? -27.1°
Drops below altitude 10° 02:42:24 10° 301° (WNW) 2,436 ? -27.4°
Sets 02:46:36 0° 332° (NNW) 3,374 ? -28.0°
